User: anonymous   Login
Location: Unspecified
(0.0000°N, 0.0000°E)
Time: 07:36:38
(UTC+00:00)
Language:

BIROS - Orbit

View from above orbital plane
View from above orbital plane
View from above satellite
View from above satellite

Ground track
Ground track

The orbit data is extracted from the following two-line orbital elements,

1 41604U 16040F   17289.77586328 +.00000980 +00000-0 +47202-4 0  9995
2 41604 097.4487 350.9044 0012773 010.5282 349.6218 15.21045940073160
Epoch (UTC): 16 October 2017 18:37:14
Eccentricity: 0.0012773
inclination: 97.4487°
perigee height: 494 km
apogee height: 511 km
right ascension of ascending node: 350.9044°
argument of perigee: 10.5282°
revolutions per day: 15.21045940
mean anomaly at epoch: 349.6218°
orbit number at epoch: 7316

The dashed part of the orbit path shows where the satellite is in the earth's shadow,  

DLR